Hurricane Symbol View the latest observations near East Pacific Tropical Storm Bud.

Station LWTV2 - 8635750 - Lewisetta, VA Image indicating link to RSS feed of recent meteorological observations for station LWTV2


Conditions at LWTV2 as of
(9:00 pm EDT on 07/24/2024)
0100 GMT on 07/25/2024:
     

Click on the graph icon in the table below to see a time series plot of the last five days of that observation.

5-day plot - Wind Direction Wind Direction (WDIR): SW ( 220 deg true )
5-day plot - Wind Speed Wind Speed (WSPD): 4.1 kts
5-day plot - Wind Gust Wind Gust (GST): 5.1 kts
5-day plot - Atmospheric Pressure Atmospheric Pressure (PRES):30.11 in
5-day plot - Pressure Tendency Pressure Tendency (PTDY):+0.02 in ( Rising )
5-day plot - Air Temperature Air Temperature (ATMP): 79.3 °F
5-day plot - Water Temperature Water Temperature (WTMP): 83.8 °F
5-day plot - Wind Speed at 10 Meters Wind Speed at 10 meters (WSPD10M): 3.9 kts
5-day plot - Wind Speed at 20 Meters Wind Speed at 20 meters (WSPD20M): 5.8 kts
5-day plot -  Wind Speed, Wind Gust and Atmospheric Pressure Combined plot of Wind Speed, Gust, and Air Pressure
NOS Water Level Observation Network Water Level
Previous observations
TIME
(EDT)
5-day plot - Wind Direction
WDIR
 
5-day plot - Wind Speed
WSPD
kts
5-day plot - Wind Gust
GST
kts
5-day plot - Wave Height
WVHT
ft
5-day plot - Dominant Wave Period
DPD
sec
5-day plot - Average Wave Period
APD
sec
5-day plot - Mean Wave Direction
MWD
 
5-day plot - Atmospheric Pressure
PRES
in
5-day plot - Pressure Tendency
PTDY
in
5-day plot - Air Temperature
ATMP
°F
5-day plot - Water Temperature
WTMP
°F
5-day plot - Dew Point
DEWP
°F
5-day plot - Salinity
SAL
psu
5-day plot - Visibility
VIS
nmi
5-day plot - Tide (above MLLW)
TIDE
ft
2024-07-24 08:54 pmSSW 5.1 5.1----30.10- 79.3 83.8----
2024-07-24 08:48 pmSSW 5.1 5.1----30.10- 79.3 83.8----
2024-07-24 08:42 pmSSW 6.0 7.0----30.10- 79.3 83.8----
2024-07-24 08:36 pmSSW 5.1 6.0----30.10- 79.3 83.8----
2024-07-24 08:30 pm S 6.0 7.0----30.10- 79.3 83.8----
2024-07-24 08:24 pm S 7.0 8.0----30.10- 79.3 83.8----
2024-07-24 08:18 pm S 7.0 8.9----30.10- 79.2 83.8----
2024-07-24 08:12 pm S 7.0 8.9----30.09- 79.0 83.8----
2024-07-24 08:06 pm S 7.0 8.0----30.09- 79.0 83.8----
2024-07-24 08:00 pm S 8.0 8.9----30.09+0.00 79.2 83.8----
2024-07-24 07:54 pm S 7.0 8.0----30.09- 79.0 83.8----
2024-07-24 07:48 pm S 7.0 8.0----30.09- 79.0 83.8----
2024-07-24 07:42 pm S 7.0 8.0----30.09- 79.3 83.8----
2024-07-24 07:36 pm S 7.0 8.0----30.09- 79.2 83.7----
2024-07-24 07:30 pm S 6.0 7.0----30.09- 79.3 83.7----
2024-07-24 07:24 pmSSW 5.1 6.0----30.09- 79.3 83.7----
2024-07-24 07:18 pm S 5.1 6.0----30.09- 79.3 83.7----
2024-07-24 07:00 pm S 4.1 5.1----30.08+0.00 79.7 83.8----
2024-07-24 06:54 pm S 4.1 4.1----30.08- 79.7 83.7----
2024-07-24 06:48 pmSSW 1.9 2.9----30.08-- 83.7----
2024-07-24 06:42 pm S 2.9 4.1----30.08-- 83.7----
2024-07-24 06:36 pmSSW 2.9 4.1----30.08-- 83.7----
2024-07-24 06:30 pmSSW 1.9 2.9----30.08- 79.9 83.7----
2024-07-24 06:24 pm W 1.9 1.9----30.08- 80.4 83.8----
2024-07-24 06:18 pmWNW 1.9 2.9----30.08- 79.5 83.8----
2024-07-24 06:12 pm NW 1.9 2.9----30.08- 79.0 83.8----
2024-07-24 06:06 pm NW 2.9 5.1----30.09- 78.8 83.7----
2024-07-24 06:00 pmNNW 4.1 6.0----30.08-0.01 78.8 83.8----
2024-07-24 05:54 pmNNW 5.1 6.0----30.09- 78.6 83.8----
2024-07-24 05:48 pmNNW 5.1 6.0----30.09- 78.6 83.8----
2024-07-24 05:42 pm N 2.9 5.1----30.09- 79.0 83.8----
2024-07-24 05:36 pm NW 5.1 5.1----30.09- 78.8 83.8----
2024-07-24 05:30 pm NW 2.9 4.1----30.09- 78.6 83.8----
2024-07-24 05:24 pm NW 4.1 5.1----30.09- 78.4 84.0----
2024-07-24 05:18 pmWNW 4.1 5.1----30.09- 78.3 84.0----
2024-07-24 05:12 pmWNW 4.1 5.1----30.09- 78.1 84.0----
2024-07-24 05:00 pm W 2.9 4.1----30.09-0.02 77.7 84.0----
2024-07-24 04:54 pm NW 4.1 5.1----30.09- 77.7 84.0----
2024-07-24 04:48 pmWNW 6.0 7.0----30.09-- 84.0----
2024-07-24 04:42 pm W 5.1 6.0----30.09-- 84.0----
2024-07-24 04:36 pm W 5.1 6.0----30.09-- 84.2----
2024-07-24 04:30 pm W 5.1 7.0----30.09- 77.9 84.2----
2024-07-24 04:24 pmWSW 6.0 8.0----30.08- 77.7 84.2----
2024-07-24 04:18 pm SW 8.0 9.9----30.08- 77.7 84.2----
2024-07-24 04:12 pm SW 8.9 11.1----30.08- 77.7 84.0----
2024-07-24 04:06 pm SW 8.9 11.1----30.08- 77.7 84.0----
2024-07-24 04:00 pm SW 8.9 11.1----30.09-0.04 78.1 84.2----
2024-07-24 03:54 pm SW 8.9 11.1----30.09- 78.3 84.2----
2024-07-24 03:48 pm SW 9.9 11.1----30.09- 78.3 84.2----
2024-07-24 03:42 pm SW 8.9 11.1----30.09- 78.8 84.2----
2024-07-24 03:36 pmWSW 8.0 9.9----30.09- 78.8 84.2----
2024-07-24 03:30 pm SW 8.0 9.9----30.10- 79.3 84.2----
2024-07-24 03:24 pm SW 8.9 9.9----30.09- 80.2 84.2----
2024-07-24 03:18 pm SW 8.0 8.9----30.09- 80.8 84.4----
2024-07-24 03:12 pm SW 7.0 9.9----30.09- 81.3 84.4----
2024-07-24 03:06 pm SW 8.9 12.0----30.09- 81.9 84.4----
2024-07-24 03:00 pmSSW 8.9 11.1----30.10-0.03 82.2 84.4----
2024-07-24 02:54 pm SW 8.9 11.1----30.10- 82.4 84.4----
2024-07-24 02:48 pmSSW 8.9 9.9----30.10- 82.8 84.2----
2024-07-24 02:42 pm SW 4.1 8.0----30.10- 83.3 84.2----
2024-07-24 02:36 pmWNW 4.1 5.1----30.10- 83.1 84.2----
2024-07-24 02:30 pm W 4.1 5.1----30.10- 83.3 84.0----
2024-07-24 02:24 pmWSW 5.1 7.0----30.10- 82.9 84.0----
2024-07-24 02:18 pmSSW 4.1 6.0----30.11- 82.4 83.8----
2024-07-24 02:12 pmSSW 2.9 4.1----30.11- 82.6 83.8----
2024-07-24 02:06 pmWSW 2.9 5.1----30.11- 82.6 83.8----
2024-07-24 02:00 pm W 2.9 5.1----30.11+0.00 81.7 83.8----
2024-07-24 01:54 pmWSW 5.1 7.0----30.12- 81.7 83.7----
2024-07-24 01:48 pm SW 5.1 7.0----30.12- 81.5 83.7----
2024-07-24 01:42 pm SW 6.0 7.0----30.12- 81.3 83.7----
2024-07-24 01:36 pm SW 7.0 8.9----30.12- 81.3 83.7----
2024-07-24 01:30 pmWSW 6.0 7.0----30.12- 81.3 83.7----
2024-07-24 01:24 pm W 6.0 8.0----30.12- 81.5 83.7----
2024-07-24 01:18 pmWSW 5.1 7.0----30.13- 81.3 83.7----
2024-07-24 01:12 pmWSW 5.1 7.0----30.13- 81.0 83.7----
2024-07-24 01:06 pmWSW 6.0 6.0----30.13- 80.8 83.5----
2024-07-24 01:00 pmWSW 6.0 8.9----30.13+0.02 80.6 83.5----
2024-07-24 12:54 pm SW 5.1 7.0----30.12- 80.6 83.5----
2024-07-24 12:48 pm W 4.1 5.1----30.12-- 83.5----
2024-07-24 12:42 pmWSW 4.1 5.1----30.13-- 83.3----
2024-07-24 12:36 pm W 2.9 5.1----30.13-- 83.3----
2024-07-24 12:30 pm W 4.1 6.0----30.13- 79.9 83.3----
2024-07-24 12:24 pm W 4.1 6.0----30.13- 79.9 83.3----
2024-07-24 12:18 pm W 7.0 8.9----30.13- 79.9 83.5----
2024-07-24 12:12 pm W 5.1 6.0----30.13- 80.1 83.5----
2024-07-24 12:06 pm W 6.0 8.0----30.13- 80.1 83.3----
2024-07-24 12:00 pm W 7.0 8.0----30.13+0.02 80.1 83.3----
2024-07-24 11:54 amWSW 7.0 8.9----30.13- 79.9 83.3----
2024-07-24 11:48 amWSW 8.0 9.9----30.13-- 83.3----
2024-07-24 11:42 am W 8.0 9.9----30.13-- 83.3----
2024-07-24 11:36 am W 8.0 9.9----30.13-- 83.3----
2024-07-24 11:30 amWSW 8.0 9.9----30.12- 79.2 83.3----
2024-07-24 11:24 amWSW 8.0 8.9----30.12- 78.8 83.3----
2024-07-24 11:18 amWSW 6.0 8.9----30.12- 79.0 83.3----
2024-07-24 11:12 am W 5.1 7.0----30.12- 78.4 83.3----
2024-07-24 11:06 am W 6.0 9.9----30.12- 78.6 83.3----
2024-07-24 11:00 am W 5.1 7.0----30.11+0.00 78.6 83.1----
2024-07-24 10:54 am W 7.0 8.9----30.11- 78.4 83.1----
2024-07-24 10:48 am W 7.0 9.9----30.11- 78.4 83.1----
2024-07-24 10:42 am W 7.0 8.9----30.11- 78.3 83.1----
2024-07-24 10:36 am W 7.0 11.1----30.11- 78.4 83.1----
2024-07-24 10:30 am W 7.0 8.9----30.11- 78.4 83.1----
2024-07-24 10:24 am W 6.0 8.9----30.11- 78.3 83.1----
2024-07-24 10:18 am W 7.0 8.9----30.10- 78.3 83.1----
2024-07-24 10:12 am W 7.0 8.9----30.10- 78.1 83.1----
2024-07-24 10:06 amWSW 8.0 9.9----30.10- 77.9 82.9----
2024-07-24 10:00 amWSW 8.0 9.9----30.11+0.01 77.9 82.9----
2024-07-24 09:54 amWSW 8.0 9.9----30.10- 77.9 82.9----
2024-07-24 09:48 amWSW 8.0 11.1----30.10-- 82.9----
2024-07-24 09:42 amWSW 8.0 8.9----30.10-- 82.9----
2024-07-24 09:36 amWSW 9.9 13.0----30.10-- 82.8----
2024-07-24 09:30 amWSW 9.9 13.0----30.10- 77.4 82.8----
2024-07-24 09:24 amWSW 9.9 12.0----30.10- 77.0 82.8----
2024-07-24 09:18 amWSW 8.0 9.9----30.10- 77.0 82.8----
2024-07-24 09:12 amWSW 8.9 12.0----30.10- 76.6 82.8----
2024-07-24 09:06 amWSW 8.9 12.0----30.11- 76.6 82.8----
2024-07-24 09:00 amWSW 8.0 9.9----30.11+0.01 76.6 82.8----
2024-07-24 08:54 amWSW 8.0 9.9----30.10- 76.6 82.8----
2024-07-24 08:48 amWSW 8.0 9.9----30.10- 76.6 82.8----
2024-07-24 08:42 amWSW 6.0 8.0----30.10- 76.5 82.8----
2024-07-24 08:36 amWSW 8.0 8.9----30.10- 76.3 82.8----
2024-07-24 08:30 amWSW 8.0 9.9----30.10- 76.5 82.8----
2024-07-24 08:24 amWSW 9.9 12.0----30.10- 76.3 82.8----
2024-07-24 08:18 amWSW 8.9 11.1----30.10- 76.3 82.9----
2024-07-24 08:12 amWSW 7.0 8.0----30.10- 76.1 82.9----
2024-07-24 08:06 amWSW 8.0 11.1----30.11- 76.1 82.9----
2024-07-24 08:00 amWSW 8.0 9.9----30.11+0.03 75.7 82.9----
2024-07-24 07:54 am SW 8.9 11.1----30.11- 75.9 82.9----
2024-07-24 07:48 amWSW 8.0 12.0----30.11- 75.7 83.1----
2024-07-24 07:42 am SW 8.0 9.9----30.11- 75.9 83.1----
2024-07-24 07:36 am SW 7.0 8.9----30.11- 75.9 83.1----
2024-07-24 07:30 am SW 7.0 7.0----30.10- 75.7 83.1----
2024-07-24 07:24 am SW 6.0 8.0----30.10- 75.7 82.9----
2024-07-24 07:18 am SW 6.0 7.0----30.10- 75.9 82.9----
2024-07-24 07:12 am SW 5.1 7.0----30.10- 75.7 82.9----
2024-07-24 07:06 am SW 5.1 7.0----30.10- 75.6 82.9----
2024-07-24 07:00 am SW 4.1 5.1----30.09+0.00 75.7 83.1----
2024-07-24 06:54 amWSW 4.1 5.1----30.09- 75.7 83.1----
2024-07-24 06:48 amWSW 5.1 7.0----30.09- 75.6 82.9----
2024-07-24 06:42 amWSW 5.1 6.0----30.09- 75.6 82.9----
2024-07-24 06:36 amWSW 5.1 6.0----30.09- 75.6 82.9----
2024-07-24 06:30 am SW 5.1 6.0----30.09- 75.7 82.9----
2024-07-24 06:24 am SW 5.1 5.1----30.09- 75.9 82.9----
2024-07-24 06:18 am W 1.9 4.1----30.09- 75.7 82.9----
2024-07-24 06:12 am W 2.9 4.1----30.09- 75.6 82.9----
2024-07-24 06:06 am W 4.1 5.1----30.09- 75.9 82.9----
2024-07-24 06:00 am W 4.1 6.0----30.09-0.01 75.7 82.9----
2024-07-24 05:54 amWSW 5.1 6.0----30.09- 75.7 82.9----
2024-07-24 05:48 am SW 5.1 7.0----30.09- 75.7 82.9----
2024-07-24 05:42 am W 2.9 5.1----30.09- 75.7 82.9----
2024-07-24 05:36 amWSW 5.1 6.0----30.09- 75.7 82.9----
2024-07-24 05:30 amWSW 5.1 6.0----30.09- 75.9 82.9----
2024-07-24 05:24 amWSW 5.1 6.0----30.08- 76.1 82.9----
2024-07-24 05:18 am SW 5.1 6.0----30.08- 75.9 82.9----
2024-07-24 05:12 amSSW 6.0 7.0----30.08- 76.1 83.1----
2024-07-24 05:06 amSSW 5.1 6.0----30.08- 76.1 83.1----
2024-07-24 05:00 amSSW 6.0 7.0----30.08-0.02 75.9 83.1----
2024-07-24 04:54 amSSW 6.0 7.0----30.07- 76.1 83.1----
2024-07-24 04:48 amSSW 5.1 7.0----30.07- 75.9 83.1----
2024-07-24 04:42 am S 5.1 7.0----30.07- 75.9 83.1----
2024-07-24 04:36 amSSW 4.1 5.1----30.07- 75.9 83.1----
2024-07-24 04:30 amSSW 4.1 5.1----30.07- 75.9 83.1----
2024-07-24 04:24 amSSW 4.1 5.1----30.07- 75.7 83.1----
2024-07-24 04:18 am S 5.1 6.0----30.07- 75.9 83.1----
2024-07-24 04:12 amSSW 5.1 7.0----30.08- 76.1 83.3----
2024-07-24 04:06 amSSW 6.0 7.0----30.08- 76.1 83.3----
2024-07-24 04:00 am S 7.0 8.0----30.09-0.02 75.9 83.3----
2024-07-24 03:54 amSSW 5.1 6.0----30.09- 76.1 83.3----
2024-07-24 03:48 amSSW 5.1 6.0----30.09- 75.9 83.3----
2024-07-24 03:42 amSSW 4.1 5.1----30.09- 76.3 83.3----
2024-07-24 03:36 amSSW 5.1 7.0----30.09- 76.3 83.3----
2024-07-24 03:30 am S 2.9 5.1----30.09- 76.1 83.3----
2024-07-24 03:24 am S 5.1 6.0----30.09- 76.1 83.3----
2024-07-24 03:18 amSSE 5.1 6.0----30.10- 76.1 83.1----
2024-07-24 03:12 amSSE 5.1 6.0----30.10- 76.1 83.1----
2024-07-24 03:06 am S 6.0 8.0----30.10- 76.3 83.3----
2024-07-24 03:00 amSSW 5.1 6.0----30.10+0.00 76.3 83.3----
2024-07-24 02:54 am SW 4.1 6.0----30.10- 76.3 83.3----
2024-07-24 02:48 amSSW 5.1 6.0----30.09- 76.3 83.3----
2024-07-24 02:42 amSSW 2.9 4.1----30.09- 76.3 83.3----
2024-07-24 02:36 amSSW 2.9 4.1----30.09- 76.3 83.3----
2024-07-24 02:30 amWSW 4.1 5.1----30.09- 76.5 83.1----
2024-07-24 02:24 amWSW 4.1 5.1----30.09- 76.3 83.1----
2024-07-24 02:18 amWSW 4.1 5.1----30.09- 76.3 83.1----
2024-07-24 02:12 am SW 4.1 6.0----30.09- 76.6 83.1----
2024-07-24 02:06 am SW 4.1 5.1----30.09- 76.5 83.1----
2024-07-24 02:00 am S 4.1 5.1----30.10+0.00 76.6 83.1----
2024-07-24 01:54 am S 4.1 5.1----30.10- 76.5 83.1----
2024-07-24 01:48 am S 6.0 7.0----30.10- 76.5 83.1----
2024-07-24 01:42 amSSE 6.0 7.0----30.10- 76.6 83.3----
2024-07-24 01:36 am S 6.0 6.0----30.10- 76.8 83.3----
2024-07-24 01:30 am S 6.0 6.0----30.10- 76.8 83.3----
2024-07-24 01:24 am S 5.1 6.0----30.11- 76.8 83.3----
2024-07-24 01:18 amSSW 4.1 5.1----30.11- 76.8 83.7----
2024-07-24 01:12 amSSW 4.1 4.1----30.10- 76.6 83.5----
2024-07-24 01:06 amSSW 4.1 5.1----30.11- 76.8 83.7----
2024-07-24 01:00 amSSW 4.1 4.1----30.11+0.01 77.0 83.5----
2024-07-24 12:54 amSSW 2.9 2.9----30.10- 77.2 83.5----
2024-07-24 12:48 amSSW 1.9 2.9----30.10- 77.2 83.5----
2024-07-24 12:42 amSSW 1.9 2.9----30.10- 77.2 83.7----
2024-07-24 12:36 am SW 1.0 1.9----30.10- 77.2 83.7----
2024-07-24 12:30 amSSW 1.9 2.9----30.10- 77.2 83.7----
2024-07-24 12:24 amSSW 1.9 2.9----30.10- 77.2 83.7----
2024-07-24 12:18 amSSW 1.0 1.9----30.09- 77.2 83.7----
2024-07-24 12:12 amSSW 1.9 2.9----30.10- 77.0 83.7----
2024-07-24 12:06 amSSW 1.9 2.9----30.10- 77.0 83.7----
2024-07-24 12:00 am-------30.10+0.01 77.0 83.7----
2024-07-23 11:54 pm-------30.10- 77.0 83.7----
2024-07-23 11:48 pmSSW 2.9 4.1----30.10- 76.8 83.7----
2024-07-23 11:42 pm S 4.1 5.1----30.10- 76.6 83.7----
2024-07-23 11:36 pmSSW 5.1 5.1----30.11- 76.6 83.5----
2024-07-23 11:30 pmSSW 5.1 6.0----30.10- 76.6 83.5----
2024-07-23 11:24 pmSSW 5.1 6.0----30.10- 76.6 83.5----
2024-07-23 11:18 pmSSW 5.1 6.0----30.10- 76.8 83.7----
2024-07-23 11:12 pmSSW 5.1 6.0----30.10- 76.6 83.7----
2024-07-23 11:06 pmSSW 5.1 6.0----30.10- 76.6 83.5----
2024-07-23 11:00 pmSSW 4.1 5.1----30.10+0.01 76.6 83.7----
2024-07-23 10:54 pmSSW 4.1 5.1----30.10- 76.5 83.5----
2024-07-23 10:48 pm SW 2.9 4.1----30.10- 76.5 83.5----
2024-07-23 10:42 pm SW 5.1 6.0----30.11- 76.6 83.7----
2024-07-23 10:36 pm SW 5.1 6.0----30.10- 76.5 83.7----
2024-07-23 10:30 pmSSW 4.1 5.1----30.10- 76.5 83.7----
2024-07-23 10:24 pmSSW 4.1 6.0----30.10- 76.6 83.7----
2024-07-23 10:18 pmSSW 5.1 7.0----30.10- 76.6 83.7----
2024-07-23 10:12 pmSSW 5.1 6.0----30.10- 77.2 83.7----
2024-07-23 10:06 pm S 5.1 7.0----30.10- 77.2 83.7----
2024-07-23 10:00 pm S 5.1 6.0----30.10+0.00 77.2 83.7----
2024-07-23 09:54 pm S 1.9 4.1----30.10- 77.0 83.7----
2024-07-23 09:48 pmWSW 1.9 1.9----30.10- 76.8 83.7----
2024-07-23 09:42 pmSSW 1.9 1.9----30.10- 76.6 83.7----
2024-07-23 09:36 pmSSW 1.9 4.1----30.10- 76.6 83.7----
2024-07-23 09:30 pmSSE 2.9 4.1----30.10- 76.1 83.7----
2024-07-23 09:24 pm SE 2.9 5.1----30.09- 76.3 83.5----
2024-07-23 09:18 pmSSE 2.9 4.1----30.09- 76.3 83.5----
2024-07-23 09:12 pmSSE 1.9 1.9----30.09- 76.3 83.5----
2024-07-23 09:06 pmSSE 1.9 2.9----30.09- 76.3 83.5----
2024-07-23 09:00 pm S 4.1 5.1----30.09+0.01 76.3 83.5----
2024-07-23 08:54 pm S 6.0 7.0----30.09- 76.1 83.5----